| time (UTC) | temp F | wind direction | speed knots | gust knots | rain 1hr in | rain 24hr in | rain mn in | humidity % | barometer mb |
| 20260507000030 | 45 | 211 | 0.0 | 1.7 | 0.00 | 0.31 | 0.31 | 92 | 1011.7 |
| 20260506234526 | 45 | 211 | 0.0 | 1.7 | 0.00 | 0.31 | 0.31 | 92 | 1011.6 |
| 20260506233026 | 45 | 211 | 0.0 | 2.6 | 0.00 | 0.31 | 0.31 | 92 | 1011.4 |
| 20260506231524 | 45 | 211 | 0.0 | 1.7 | 0.00 | 0.31 | 0.31 | 92 | 1011.4 |
| 20260506230023 | 45 | 211 | 0.0 | 1.7 | 0.00 | 0.31 | 0.31 | 92 | 1011.3 |
| 20260506224523 | 45 | 211 | 0.0 | 3.5 | 0.00 | 0.31 | 0.31 | 92 | 1011.2 |
| 20260506223019 | 46 | 324 | 0.9 | 4.3 | 0.00 | 0.31 | 0.31 | 92 | 1010.9 |
| 20260506221518 | 46 | 269 | 0.9 | 2.6 | 0.00 | 0.31 | 0.31 | 93 | 1010.4 |
| 20260506220017 | 46 | 154 | 0.9 | 3.5 | 0.00 | 0.31 | 0.31 | 93 | 1010.3 |
| 20260506214518 | 46 | 316 | 2.6 | 7.8 | 0.00 | 0.31 | 0.31 | 93 | 1010.4 |
| 20260506213012 | 46 | 240 | 1.7 | 7.0 | 0.00 | 0.31 | 0.31 | 93 | 1010.3 |
| 20260506211510 | 47 | 211 | 1.7 | 5.2 | 0.00 | 0.31 | 0.31 | 94 | 1010.1 |
| 20260506210007 | 47 | 167 | 0.9 | 3.5 | 0.00 | 0.31 | 0.31 | 94 | 1009.7 |
| 20260506204506 | 47 | 178 | 0.9 | 5.2 | 0.00 | 0.31 | 0.31 | 94 | 1009.4 |
| 20260506203011 | 47 | 214 | 1.7 | 4.3 | 0.01 | 0.31 | 0.31 | 94 | 1009.2 |
| 20260506201502 | 47 | 317 | 0.0 | 2.6 | 0.01 | 0.31 | 0.31 | 94 | 1008.5 |
| 20260506200003 | 47 | 348 | 0.9 | 5.2 | 0.01 | 0.42 | 0.31 | 94 | 1008.4 |
| 20260506194600 | 47 | 182 | 2.6 | 7.0 | 0.02 | 0.42 | 0.31 | 94 | 1008.4 |
| 20260506193058 | 48 | 245 | 2.6 | 8.7 | 0.01 | 0.41 | 0.30 | 94 | 1008.4 |
| 20260506191559 | 48 | 313 | 0.0 | 2.6 | 0.01 | 0.41 | 0.30 | 94 | 1008.1 |
| 20260506190058 | 48 | 303 | 1.7 | 3.5 | 0.01 | 0.41 | 0.30 | 94 | 1008.0 |
| 20260506184555 | 49 | 5 | 0.9 | 3.5 | 0.00 | 0.40 | 0.28 | 94 | 1007.7 |
| 20260506183057 | 49 | 314 | 0.0 | 3.5 | 0.01 | 0.40 | 0.28 | 93 | 1007.7 |
| 20260506181552 | 49 | 317 | 0.9 | 4.3 | 0.01 | 0.40 | 0.28 | 93 | 1007.2 |
| 20260506180051 | 50 | 223 | 3.5 | 7.0 | 0.01 | 0.40 | 0.28 | 93 | 1006.9 |
| 20260506174556 | 51 | 193 | 2.6 | 10.4 | 0.01 | 0.40 | 0.28 | 92 | 1006.4 |
| 20260506173054 | 54 | 26 | 3.5 | 9.6 | 0.00 | 0.39 | 0.28 | 91 | 1006.3 |
| 20260506171544 | 58 | 98 | 0.9 | 4.3 | 0.00 | 0.39 | 0.28 | 94 | 1006.0 |
| 20260506170046 | 58 | 98 | 0.9 | 7.0 | 0.00 | 0.39 | 0.28 | 94 | 1006.0 |
| 20260506164541 | 58 | 180 | 1.7 | 8.7 | 0.01 | 0.39 | 0.28 | 95 | 1006.2 |
| 20260506163048 | 58 | 236 | 0.9 | 3.5 | 0.01 | 0.39 | 0.28 | 95 | 1006.2 |
| 20260506161540 | 57 | 132 | 0.9 | 3.5 | 0.01 | 0.39 | 0.28 | 95 | 1006.0 |
| 20260506160040 | 57 | 194 | 0.9 | 3.5 | 0.03 | 0.39 | 0.28 | 95 | 1006.2 |
| 20260506154539 | 57 | 259 | 0.9 | 4.3 | 0.02 | 0.38 | 0.27 | 96 | 1006.3 |
| 20260506153042 | 57 | 181 | 0.9 | 2.6 | 0.03 | 0.38 | 0.27 | 96 | 1006.1 |
| 20260506151534 | 57 | 155 | 0.0 | 2.6 | 0.03 | 0.37 | 0.26 | 96 | 1006.4 |
| 20260506150040 | 57 | 273 | 0.9 | 6.1 | 0.02 | 0.36 | 0.25 | 96 | 1006.2 |
| 20260506144553 | 57 | 202 | 0.9 | 5.2 | 0.03 | 0.36 | 0.25 | 96 | 1006.1 |
| 20260506143036 | 56 | 213 | 0.0 | 2.6 | 0.04 | 0.35 | 0.24 | 96 | 1006.1 |
| 20260506141533 | 56 | 221 | 0.0 | 0.9 | 0.05 | 0.34 | 0.23 | 96 | 1006.2 |
| 20260506140043 | 56 | 221 | 0.0 | 1.7 | 0.08 | 0.34 | 0.23 | 96 | 1006.4 |
| 20260506134532 | 55 | 221 | 0.0 | 1.7 | 0.11 | 0.33 | 0.22 | 96 | 1006.3 |
| 20260506133028 | 55 | 244 | 0.0 | 1.7 | 0.12 | 0.31 | 0.20 | 96 | 1006.6 |
| 20260506131533 | 55 | 130 | 0.0 | 2.6 | 0.14 | 0.28 | 0.18 | 96 | 1007.0 |
| 20260506130024 | 54 | 148 | 0.0 | 1.7 | 0.11 | 0.26 | 0.15 | 96 | 1007.2 |
| 20260506124522 | 54 | 62 | 0.0 | 2.6 | 0.08 | 0.22 | 0.11 | 96 | 1007.3 |
| 20260506123033 | 54 | 339 | 0.0 | 1.7 | 0.04 | 0.18 | 0.07 | 96 | 1006.9 |
| 20260506121519 | 54 | 339 | 0.0 | 2.6 | 0.02 | 0.15 | 0.04 | 96 | 1006.9 |
| 20260506120025 | 53 | 74 | 0.0 | 0.9 | 0.02 | 0.15 | 0.04 | 96 | 1006.8 |
| 20260506114520 | 53 | 74 | 0.0 | 0.0 | 0.01 | 0.16 | 0.03 | 95 | 1007.0 |
| 20260506113018 | 52 | 74 | 0.0 | 0.0 | 0.01 | 0.16 | 0.03 | 95 | 1007.2 |
| 20260506111516 | 52 | 74 | 0.0 | 0.9 | 0.01 | 0.15 | 0.02 | 95 | 1007.2 |
| 20260506110016 | 52 | 74 | 0.0 | 0.9 | 0.01 | 0.15 | 0.02 | 95 | 1007.0 |
| 20260506104523 | 52 | 74 | 0.0 | 0.0 | 0.01 | 0.15 | 0.02 | 95 | 1007.1 |
| 20260506103016 | 52 | 74 | 0.0 | 0.0 | 0.01 | 0.15 | 0.02 | 95 | 1007.2 |
| 20260506101512 | 52 | 74 | 0.0 | 0.0 | 0.00 | 0.14 | 0.01 | 95 | 1006.9 |
| 20260506100017 | 52 | 19 | 0.0 | 0.0 | 0.01 | 0.14 | 0.01 | 94 | 1006.8 |
| 20260506094611 | 52 | 292 | 0.0 | 0.9 | 0.01 | 0.14 | 0.01 | 94 | 1006.8 |
| 20260506093010 | 52 | 291 | 0.0 | 0.9 | 0.01 | 0.14 | 0.01 | 94 | 1006.8 |
| 20260506091508 | 52 | 291 | 0.0 | 1.7 | 0.01 | 0.14 | 0.01 | 94 | 1006.8 |
| 20260506090006 | 52 | 291 | 0.0 | 0.0 | 0.00 | 0.13 | 0.00 | 94 | 1007.0 |
| 20260506084507 | 52 | 291 | 0.0 | 0.0 | 0.00 | 0.13 | 0.00 | 94 | 1007.4 |
| 20260506083006 | 52 | 291 | 0.0 | 0.9 | 0.00 | 0.13 | 0.00 | 94 | 1007.5 |
| 20260506081507 | 52 | 291 | 0.0 | 0.9 | 0.00 | 0.13 | 0.00 | 94 | 1007.5 |
| 20260506073001 | 52 | 291 | 0.0 | 0.9 | 0.00 | 0.13 | 0.00 | 94 | 1007.2 |
| 20260506071600 | 52 | 291 | 0.0 | 0.0 | 0.00 | 0.13 | 0.00 | 93 | 1007.2 |
| 20260506061553 | 52 | 291 | 0.0 | 0.9 | 0.00 | 0.13 | 0.00 | 93 | 1007.9 |
| 20260506044550 | 53 | 291 | 0.0 | 0.9 | 0.00 | 0.13 | 0.00 | 91 | 1009.0 |
| 20260506043043 | 53 | 291 | 0.0 | 1.7 | 0.00 | 0.13 | 0.00 | 90 | 1009.0 |
| 20260506041542 | 53 | 291 | 0.0 | 1.7 | 0.00 | 0.13 | 0.00 | 88 | 1009.1 |
| 20260506040037 | 54 | 291 | 0.9 | 1.7 | 0.00 | 0.13 | 0.00 | 87 | 1009.3 |
| 20260506034538 | 55 | 291 | 0.0 | 1.7 | 0.00 | 0.13 | 0.13 | 86 | 1009.3 |
| 20260506033033 | 56 | 290 | 0.0 | 1.7 | 0.00 | 0.13 | 0.13 | 85 | 1009.8 |
| 20260506031542 | 56 | 292 | 0.9 | 3.5 | 0.00 | 0.13 | 0.13 | 84 | 1009.5 |
| 20260506030031 | 56 | 251 | 0.9 | 4.3 | 0.00 | 0.13 | 0.13 | 84 | 1009.6 |
| 20260506024532 | 57 | 269 | 1.7 | 5.2 | 0.00 | 0.13 | 0.13 | 87 | 1009.5 |
| 20260506023027 | 58 | 161 | 0.0 | 2.6 | 0.00 | 0.13 | 0.13 | 91 | 1009.4 |
| 20260506021524 | 58 | 248 | 0.0 | 5.2 | 0.00 | 0.13 | 0.13 | 91 | 1009.1 |
| 20260506020024 | 58 | 255 | 0.0 | 1.7 | 0.00 | 0.13 | 0.13 | 92 | 1008.9 |
| 20260506014523 | 58 | 196 | 0.9 | 2.6 | 0.00 | 0.13 | 0.13 | 94 | 1008.6 |
| 20260506013023 | 58 | 196 | 0.0 | 1.7 | 0.00 | 0.13 | 0.13 | 95 | 1008.5 |
| 20260506011520 | 58 | 196 | 0.0 | 1.7 | 0.00 | 0.13 | 0.13 | 94 | 1008.1 |
| 20260506010044 | 58 | 200 | 0.0 | 1.7 | 0.00 | 0.13 | 0.13 | 94 | 1007.9 |
| 20260506004522 | 59 | 200 | 0.0 | 1.7 | 0.00 | 0.13 | 0.13 | 94 | 1007.7 |
| 20260506003022 | 59 | 200 | 0.0 | 1.7 | 0.00 | 0.13 | 0.13 | 94 | 1007.4 |
| 20260506001518 | 59 | 200 | 0.0 | 0.9 | 0.00 | 0.13 | 0.13 | 93 | 1007.3 |